Regional Weather Roundup
Issued by NWS Sterling, VA

Home | Current Version | Previous Version | Text Only | Print | Product List | Glossary On
Versions: 1 2 3 4 5 6 7 8 9 10 11 12 13 14 15 16 17 18 19 20 21 22 23 24 25 26 27
000
ASUS41 KLWX 200111
RWRLWX

REGIONAL WEATHER ROUNDUP
NATIONAL WEATHER SERVICE BALTIMORE MD/WASHINGTON DC
800 PM EST FRI JAN 19 2018

Note: "FAIR" indicates few or no clouds below 12,000 feet
with no significant weather and/or obstructions to visibility.
 TC=TEMPERATURE CELSIUS

 * =Non NWS site. Station does not report precipitation (e.g. rain,
    snow, etc.), thunder, or fog.

DCZ001-MDZ009-015-VAZ040>042-051-053>054-200200-
WASHINGTON METRO

CITY           SKY/WX    TMP DP  RH WIND       PRES   REMARKS
WASHINGTON NAT FAIR      38  22  52 S7        30.05S WCI  33
DULLES         FAIR      38  13  35 S5        30.03S WCI  34
ANDREWS AFB    FAIR      39  11  32 S9        30.03S WCI  33
FT BELVOIR     FAIR      30  12  46 CALM      30.05S
COLLEGE PARK*  FAIR      30  21  70 CALM      30.04S
LEESBURG*      FAIR      34  21  60 CALM      30.04R
MANASSAS*      FAIR      28  18  66 CALM      30.04F
GAITHERSBURG*  FAIR      33  17  51 CALM      30.04R

$$

MDZ006>007-011-014-200200-
BALTIMORE METRO

CITY           SKY/WX    TMP DP  RH WIND       PRES   REMARKS
BWI AIRPORT    FAIR      33  19  56 CALM      30.04R
MD SCIENCE CTR   N/A     40  20  44 MISG      30.04S
MARTIN STATE   CLEAR     32  23  69 CALM      30.07R
ANNAPOLIS      FAIR      40  19  43 CALM      30.05S
FORT MEADE*    FAIR      28  19  69 CALM      30.07R

$$

MDZ012-015-019>023-200200-
MARYLAND EASTERN SHORE

CITY           SKY/WX    TMP DP  RH WIND       PRES   REMARKS
OCEAN CITY     FAIR      31  22  69 SW3       30.09R
SALISBURY      FAIR      27  20  75 CALM      30.08S
BAY BRIDGE AP* FAIR      37  18  44 S8        30.05S WCI  31
CAMBRIDGE*     CLEAR     30  19  64 SE6       30.07S WCI  24
EASTON*        CLEAR     36  18  48 S6        30.09S WCI  31

$$

MDZ017>025-200200-
SOUTHERN MARYLAND

CITY           SKY/WX    TMP DP  RH WIND       PRES   REMARKS
PATUXENT RIVER NOT AVBL
ST INIGOES     FAIR      30  21  69 CALM      30.07S
LEONARDTOWN*   FAIR      34  16  47 CALM      30.07F

$$

MDZ003>005-200200-
NORTH CENTRAL MARYLAND

CITY           SKY/WX    TMP DP  RH WIND       PRES   REMARKS
FREDERICK*     CLEAR     32  18  55 CALM      30.07R
HAGERSTOWN APT FAIR      44  20  38 SW7       30.03R
WESTMINSTER*   FAIR      43  18  36 SW6       30.02S

$$

MDZ501>502-200200-
WESTERN MARYLAND

CITY           SKY/WX    TMP DP  RH WIND       PRES   REMARKS
OAKLAND*       FAIR      30  18  59 SW16G24   29.97S WCI  19
CUMBERLAND*    FAIR      41  21  45 S8        30.08S

$$

VAZ025>031-200200-
SHENANDOAH VALLEY

CITY           SKY/WX    TMP DP  RH WIND       PRES   REMARKS
WINCHESTER*    FAIR      32  18  55 CALM      30.05R
FRONT ROYAL*   FAIR      39  12  33 SE5       30.02S
LURAY*         FAIR      32  18  55 CALM      30.03S
NEW MARKET*    FAIR      30  15  53 CALM      30.03S
STAUNTON*      FAIR      39   6  25 SW6       30.06R WCI  35
WAYNESBORO*    FAIR      43   0  16 SW8       30.05S

$$

WVZ021-048>050-054>055-200200-
EASTERN WEST VIRGINIA PANHANDLE

CITY           SKY/WX    TMP DP  RH WIND       PRES   REMARKS
MARTINSBURG    FAIR      36  20  52 S3        30.02R
PETERSBURG*    FAIR      30  23  74 W3        30.05S

$$

VAZ036>039-050-200200-
CENTRAL FOOTHILLS

CITY           SKY/WX    TMP DP  RH WIND       PRES   REMARKS
CHARLOTTESVILL FAIR      44   9  23 S9        30.04R
CULPEPER*      FAIR      32  10  40 CALM      30.05S
ORANGE*        FAIR      41   9  26 CALM      30.05S
GORDONSVILLE*  FAIR      32  17  54 CALM      30.05R
WARRENTON*     FAIR      27  12  52 CALM      30.03S

$$

VAZ055>057-200200-
NORTH AND CENTRAL PIEDMONT

CITY           SKY/WX    TMP DP  RH WIND       PRES   REMARKS
FREDERICKSBRG* FAIR      37  16  42 CALM      30.05S
STAFFORD*      FAIR      38  11  33 CALM      30.09S

$$

NCZ024-NYZ072-PAZ021-071-VAZ022-071-200200-
OTHER REGIONAL OBSERVATIONS

CITY           SKY/WX    TMP DP  RH WIND       PRES   REMARKS
NEW YORK CITY  FAIR      39  18  42 SW7G17    30.00S WCI  34
PHILADELPHIA   FAIR      39  20  46 SW9       30.03S WCI  33
PITTSBURGH     FAIR      35  18  49 SW7       30.00S WCI  29
ROANOKE        FAIR      41  10  28 W7        30.12R
RICHMOND       FAIR      37  14  38 S5        30.09R WCI  33
RALEIGH        FAIR      37  24  59 CALM      30.16R

$$

ANZ530>537-200200-
MARINE OBSERVATIONS

STATION/POSITION TIME  TEMP    WIND        PRES
                       AIR SEA DIR/SP/G
                 (UTC) (F)     (DEG/KT/KT) (MB)
THOMAS PT LIGHT  0000   35 32  190/ 13/ 14   N/A
BALT KEY BRIDGE  0042   39      CALM  /  1 1017.5R
COVE POINT       0042   38     190/ 11/ 12 1018.6F
LEWISETTA        0042   35 32  220/  3/  4 1018.4R
SOLOMONS ISLAND  0042   35 34   CALM  /  1 1017.8F
PINEY POINT      0048          150/  5/  5   N/A

$$





USA.gov is the U.S. government's official web portal to all federal, state and local government web resources and services.